STARLINK-11630, 63111

Orbit data source: Space-Track

STARLINK-11630, 63111 is a payload satellite owned by SpaceX/Seattle (US) in LEO that was launched on Thu, 27 Feb 2025 UTC via an FALCON 9 launch vehicle from the Air Force Eastern Test Range (AFETR). Payload-class satellites include a variety of spacecraft equipped with specific instruments for various scientific and technological missions. These include communications satellites like Starlink; space stations such as the ISS; scientific satellites like the Hubble; Earth observation satellites from companies like Planet Labs, Umbra, and HawkEye 360; GPS; miniature CubeSats for education and research; and military/defense satellites.

Loading next visibility...
Identifier
63111, 2025-039H
Orbit
LEO
Country
Flag of USUS
Related business
Manufacturer
SpaceX/Seattle
Mission
Operational Commercial Communications
Bus & Motor
STARLINK V2MD, Unknown motor
Mass
960 kg wet, ~910 kg dry
Launch date (UTC)
2025-02-27 (1 year ago)
Launch vehicle
FALCON 9
Launch site
Air Force Eastern Test Range (AFETR)
Object type
Payload
Rocket body
Debris
Shape & HBR
Box + 2 Pan, 18.1 m
Radar Cross Section
36.964 m², Large (>1 m²)

Expand to show TLE details & history
Last TLE update: 20 hours ago

TLE from 20 hours ago
0 STARLINK-11630
1 63111U 25039H   26104.05097582  .00147595  00000-0  11309-2 0  9997
2 63111  42.9997  23.9845 0003563 261.0083  99.0381 15.70887668 65177
Epoch: 2026-04-14T01:13Z
TLE epoch observation values (Epoch: 2026-04-14T01:13:24.310Z)
Latitude
-0.00007°
Longitude
163.40036°
Altitude
356.508 km
Speed
7.697 km/s
True Right ascension
01h 35m 56s
True Declination
0° 00' 00"
Sunlit
Object was in daylight at epoch
Visualization orbit readout
Latitude
Unknown
Longitude
Unknown
Altitude
Unknown
Speed
Unknown
Apparent Right ascension
Unknown
Apparent Declination
Unknown
Sunlit
N/A
Visualization observer readout
Local Sidereal Time
03:38:43
Azimuth
Unknown
Elevation
Unknown
Doppler factor
Unknown
Orbital elements
Apogee altitude
360.741 km
Perigee altitude
355.94 km
Semi-major axis
6,736.477 km
Eccentricity
0.00036
Inclination
42.9997°
RAAN
23.9845°
Arg. of periapsis
261.0083°
True anomaly
99.07842°
Mean anomaly
99.0381°
Eccentric anomaly
99.05826°
Mean motion
3.92549 °/min
Orbital period
91.71 mins
BSTAR
0.0011309
Loading maneuver chart data...
Computing Atmospheric mass density...
Loading historical data...
Loading historical data...
Loading historical data...
Loading historical data...
Loading historical data...
Loading historical data...
Loading historical data...

Documentation

Showing up to 5 results
|